Powrót do katalogu

STARLINK-4800

AktywnyŁącznośćVLEO
NORAD 53854·PAYLOAD·🇺🇸 United States

Wystrzelony Sep 19, 2022 z Cape Canaveral Space Force Station

Loading…

Następne Przeloty (najbliższe 24 godziny)

TLE

ŚwieżeSource: CelesTrak SupGP

Epoka: Sep 14, 2026, 21:39 UTC

1 53854C 22114AN  26257.90256944 -.00029223  00000+0 -93993-3 0  2578
2 53854  53.1581 145.1240 0001330  85.0743 304.6753 15.31710031    12

Śledź STARLINK-4800 w czasie rzeczywistym z AllMySat

Download on the App Store